This is the latest recevied weather packets stored in our database for station/object K8JCL-13. If no packets are shown the sender has not sent any weather packets the latest 10 day(s).
| Time | Temp. | Humidity | Pressure | Rain* | Wind** | Luminosity | Snow |
|---|---|---|---|---|---|---|---|
| 1777914621 | 21.67° C | 58% | 1008.1 hPa | 0 mm | - | 710 W/m² | - |
| 1777914317 | 20.56° C | 61% | 1007.9 hPa | 0 mm | - | 755 W/m² | - |
| 1777914015 | 21.11° C | 61% | 1008.2 hPa | 0 mm | - | 348 W/m² | - |
| 1777913710 | 21.67° C | 60% | 1008.2 hPa | 0 mm | - | 389 W/m² | - |
| 1777913407 | 21.67° C | 57% | 1008 hPa | 0 mm | - | 688 W/m² | - |
| 1777913104 | 21.11° C | 62% | 1008.2 hPa | 0 mm | - | 683 W/m² | - |
| 1777912800 | 21.67° C | 59% | 1008.3 hPa | 0 mm | - | 683 W/m² | - |
| 1777912495 | 22.22° C | 57% | 1008.4 hPa | 0 mm | - | 692 W/m² | - |
| 1777912193 | 22.78° C | 60% | 1008.5 hPa | 0 mm | - | 676 W/m² | - |
| 1777911889 | 22.22° C | 61% | 1008.5 hPa | 0 mm | - | 681 W/m² | - |
| 1777911585 | 21.11° C | 62% | 1008.4 hPa | 0 mm | - | 687 W/m² | - |
| 1777911281 | 21.67° C | 65% | 1008.5 hPa | 0 mm | - | 564 W/m² | - |
| 1777910979 | 21.11° C | 62% | 1008.4 hPa | 0 mm | - | 535 W/m² | - |
| 1777910677 | 20.56° C | 61% | 1008.3 hPa | 0 mm | - | 570 W/m² | - |
| 1777910373 | 20.56° C | 64% | 1008.6 hPa | 0 mm | - | 524 W/m² | - |
| 1777910070 | 20.56° C | 62% | 1008.5 hPa | 0 mm | - | 545 W/m² | - |
| 1777909767 | 20.56° C | 63% | 1008.4 hPa | 0 mm | - | 384 W/m² | - |
| 1777909464 | 20° C | 64% | 1008.5 hPa | 0 mm | - | 456 W/m² | - |
| 1777909162 | 20° C | 63% | 1008.5 hPa | 0 mm | - | 340 W/m² | - |
| 1777908860 | 20° C | 64% | 1008.9 hPa | 0 mm | - | 380 W/m² | - |
| 1777908556 | 20° C | 62% | 1008.9 hPa | 0 mm | - | 415 W/m² | - |
| 1777908253 | 20° C | 67% | 1008.9 hPa | 0 mm | - | 443 W/m² | - |
| 1777907950 | 20° C | 66% | 1009.1 hPa | 0 mm | - | 494 W/m² | - |
| 1777907645 | 19.44° C | 65% | 1009.2 hPa | 0 mm | - | 458 W/m² | - |
| 1777907341 | 20° C | 64% | 1009 hPa | 0 mm | - | 466 W/m² | - |
* Rain latest hour (hover to see other rain measurements)
** Current wind speed in m/s (hover to see current wind gust speed)